Location: Unspecified
(0.0000°N, 0.0000°E)
Time: 18:48:44
(UTC+00:00)

Transit 2A Rocket - Pass Details

Date: 20 November 2019
Orbit: 594 x 909 km, 66.7° (Epoch: 05 December)

Event Time Altitude Azimuth Distance (km) Brightness Sun altitude
Rises 07:24:55 0° 350° (N) 2,976 7.8 23.3°
Reaches altitude 10° 07:27:10 10° 355° (N) 2,109 7.1 23.8°
Maximum altitude 07:31:50 52° 71° (ENE) 897 6.3 24.9°
Drops below altitude 10° 07:36:58 10° 147° (SSE) 2,320 8.5 26.1°
Sets 07:39:32 0° 151° (SSE) 3,303 9.0 26.7°
